DELTA 1 DEB, 7042

Orbit data source: Space-Track

DELTA 1 DEB, 7042 is space debris in SSO originally from a launch on Tue, 06 Nov 1973 UTC launched from the Air Force Western Test Range (AFWTR). Debris objects in space refer to the collection of defunct objects orbiting the Earth. Examples of debris include non-operational satellites, rocket bodies, and fragments generated from explosions, collisions, or faulty payload assembly.

Loading next visibility...
DELTA 1 DEB details
Identifier
7042, 1973-086AJ
Orbit
SSO
Last TLE update1 day ago
Origin
Flag of USGSFC (US)
ManufacturerUnknown
MissionSpacecraft
Bus & MotorUnknown
MassUnknown
Launch date (UTC)
1973-11-06 (51 years ago)
Launch vehicleUnknown
Launch site
Air Force Western Test Range (AFWTR)
Object type
Payload
Rocket body
Debris
Shape & HBRUnknown
Radar Cross SectionSmall (<0.1 m²)

Expand to show TLE details & history

TLE from 1 day ago
0 DELTA 1 DEB
1 07042U 73086AJ  24360.39296977  .00002928  00000-0  35869-2 0  9998
2 07042 101.7322 145.2081 0320892 229.5893 127.6827 13.47130320489653
Epoch: 2024-12-25T09:25Z
Definitive object data (Epoch: 2024-12-25T09:25:52.588Z)
Latitude0.00003°
Longitude-90.64839°
Altitude1,236.592 km
Speed7.163 km/s
True Right ascension09h 40m 49s
True Declination0° 00' 00"
Sunlit
Object was in full shadow at TLE epoch
Visualization TLE readout
Latitude-42.87252°
Longitude79.56765°
Altitude860.039 km
Speed7.54 km/s
Apparent Right ascension21h 54m 28s
Apparent Declination-42° 08' 13"
Sunlit
Object is in daylight
Visualization observer readout
Local Sidereal Time10:51:47
Azimuth106.266° ESE
Elevation-78.977°
Doppler factor1
Orbital elements
Apogee altitude1,319.585 km
Perigee altitude840.918 km
Semi-major axis7,458.388 km
Eccentricity0.0320892
Inclination101.7322°
RAAN145.2081°
Arg. of periapsis229.5893°
True anomaly130.52196°
Mean anomaly127.6827°
Eccentric anomaly129.10933°
Mean motion3.36958 °/min
BSTAR0.0035869
Orbital period106.84 mins
Loading maneuver chart data...
Loading historical data...
Loading historical data...
Loading historical data...
Loading historical data...
Loading historical data...
Loading historical data...
Loading historical data...

DELTA 1 DEB Visibility forecast

Observer location: undefined°, undefined

Span
Click to sort rows by Start time (UTC) header in descending order
Start Az.
Max El. time (UTC)
Max El. Az.
Max El.
End time (UTC)
End Az.
9 mins2024-12-26 21:44:26.198Z48.533° ENE2024-12-26 21:48:26.198Z90.176° ESE22.049°2024-12-26 21:53:26.198Z145.742° SSE
10 mins2024-12-26 23:29:26.198Z4.906° NNE2024-12-26 23:34:26.198Z288.723° WNW39.635°2024-12-26 23:39:26.198Z220.181° SW
9 mins2024-12-27 07:58:26.198Z88.172° E2024-12-27 08:02:26.198Z51.127° ENE20.235°2024-12-27 08:07:26.198Z9.695° NNE
13 mins2024-12-27 09:40:26.198Z161.187° S2024-12-27 09:46:26.198Z326.567° NNW44.935°2024-12-27 09:53:26.198Z342.412° N
|